Flag for Qatar Weather past 2 weeks in Al-Jamiliyah, Qatar

Now
103 °F

Sunny.


Feels Like: 100 °F
Forecast: 91 / 106 °F
Wind: 26 mph from North

Location: Al Udeid

Current Time: Jul 28, 2014 at 6:57:50 PM

Latest Report: Jul 28, 2014 at 5:58 PM


Visibility: N/A

Pressure: 29.48 "Hg

Humidity: 17%

Dew point: 50 °F

Location of Al-JamiliyahLocation

Historic Weather in Al-Jamiliyah — Graph

°F

Al-Jamiliyah temperature yesterday

Maximum temperature yesterday: 112 °F (at 12:58 PM)
Minimum temperature yesterday: 88 °F (at 4:58 AM)
Average temperature yesterday: 100 °F

Past Weeks' High & Low Weather Summary

 TemperatureHumidityPressure
High114 °F (Jul 14, 12:58 PM)92% (Jul 19, 5:58 AM)29.60 "Hg (Jul 19, 5:58 AM)
Low83 °F (Jul 16, 4:58 AM)6% (Jul 16, 2:58 PM)29.34 "Hg (Jul 17, 11:58 PM)
Average99 °F35%29.46 "Hg
* Reported Jul 13 4:58 PM — Jul 28 4:58 PM, Al-Jamiliyah, Weather by CustomWeather, © 2014

Note: Actual official high and low records may vary slightly from our data, if they occured in-between our weather recording intervals... More about our weather records

Advertising

Al-Jamiliyah weather history for previous 24 hours

 ConditionsComfort  
Time TempWeatherWind HumidityBarometerVisibility
4:58 PM
Jul 28
105 °FSunny.26 mph16%29.48 "HgN/A
4:48 PM106 °FSunny.31 mph15%29.48 "Hg5 mi
3:58 PM107 °FSunny.33 mph15%29.47 "Hg2 mi
2:58 PM108 °FSunny.30 mph16%29.48 "Hg3 mi
1:58 PM109 °FLow level haze.33 mph15%29.50 "Hg2 mi
12:58 PM109 °FLow level haze.36 mph16%29.51 "Hg1 mi
11:58 AM110 °FLow level haze.33 mph16%29.52 "Hg3 mi
10:58 AM109 °FLow level haze.33 mph16%29.54 "Hg1 mi
9:58 AM107 °FScattered clouds.32 mph20%29.55 "Hg2 mi
8:58 AM105 °FScattered clouds.31 mph22%29.55 "Hg4 mi
7:58 AM97 °FScattered clouds.16 mph44%29.56 "HgN/A
6:58 AM94 °FScattered clouds.16 mph51%29.55 "HgN/A
5:58 AM91 °FScattered clouds.15 mph53%29.54 "HgN/A
4:58 AM89 °FClear.14 mph52%29.54 "HgN/A
3:58 AM89 °FClear.12 mph52%29.53 "HgN/A
2:58 AM89 °FClear.12 mph58%29.53 "HgN/A
1:58 AM88 °FClear.8 mph54%29.54 "HgN/A
12:58 AM89 °FClear.7 mph49%29.55 "HgN/A
11:58 PM
Jul 27
92 °FClear.10 mph41%29.55 "HgN/A
10:58 PM93 °FClear.6 mph40%29.57 "HgN/A
9:58 PM94 °FClear.7 mph37%29.59 "HgN/A
8:58 PM97 °FClear.8 mph32%29.59 "HgN/A
7:58 PM100 °FSunny.15 mph25%29.58 "HgN/A
6:58 PM103 °FPartly sunny.15 mph21%29.57 "HgN/A
Weather by CustomWeather, © 2014

See weather overviewHow to use our weather pages